loading
DOY 173 | 2024-06-21T05:40:15Z

THOR ABLESTAR DEB, 657

Orbit data source: Space-Track

THOR ABLESTAR DEB, 657 is space debris in LEO originally from a launch on Thu, 29 Jun 1961 UTC launched from the Air Force Eastern Test Range (AFETR). Debris objects in space refer to the collection of defunct objects orbiting the Earth. Examples of debris include non-operational satellites, rocket bodies, and fragments generated from explosions, collisions, or faulty payload assembly.

Loading next visibility...
Loading greatness...
THOR ABLESTAR DEB details
NORAD ID657
COSPAR ID
1961-015HJ
Orbit
LEO
Last TLE update2 days ago
Origin
Flag of USUSAF SSD (US)
ManufacturerUnknown
BusUnknown
MotorUnknown
MassWet unknown, Dry mass unknown
Launch date (UTC)
1961-06-29 (63 years ago)
Launch vehicleUnknown
Launch site
Air Force Eastern Test Range (AFETR)
Object type
Payload
Rocket body
Debris
Radar Cross SectionSmall (<0.1 m²)
Predictive object data (real-time)
Latitude53.69991°
Longitude-129.32035°
Altitude1,188.347 km
Speed7.283 km/s
Apparent Right ascension00h 24m 37s
Apparent Declination32° 56' 19"
Sunlit
Object is in daylight
Predictive observer data (real-time)
Local Sidereal Time16:39:26
Azimuth48.933° ENE
Elevation3.655°
Doppler factor1
Orbital elements
Apogee1,465.13 km
Perigee967.927 km
Semi-major axis7,594.666 km
Eccentricity0.0327337
Inclination66.1986°
RAAN148.6893°
Arg. of periapsis36.1656°
True anomaly122.42854°
Mean anomaly119.2207°
Mean motion3.27929 °/min
BSTAR0.00065109
Period109.78 mins
Definitive object data (Epoch: 2024-06-19T09:56:53.868Z)
Latitude19.52168°
Longitude-97.60845°
Altitude1,346.98 km
Speed7.126 km/s
True Right ascension21h 18m 56s
True Declination19° 25' 19"
Sunlit
Object was in daylight at TLE epoch
TLE from 2 days ago
0 THOR ABLESTAR DEB
1 00657U 61015HJ  24171.41451237  .00000236  00000-0  65109-3 0  9998
2 00657  66.1986 148.6893 0327337  36.1656 119.2207 13.11332565  9176
Epoch: 2024-06-19T09:56Z
No data available

THOR ABLESTAR DEB Visibility forecast

Observer location: 39.9160978°, -105.1181434, 0m alt.

THOR ABLESTAR DEB is not visible in the next 10 days
Span
Click to sort rows by Start time (UTC) header in descending order
Start Az.
Max El. time (UTC)
Max El. Az.
Max El.
End time (UTC)
End Az.